This is the latest recevied weather packets stored in our database for station/object N5GMJ. If no packets are shown the sender has not sent any weather packets the latest 10 day(s).
| Time | Temp. | Humidity | Pressure | Rain* | Wind** | Luminosity | Snow |
|---|---|---|---|---|---|---|---|
| 1777733421 | 17.78° C | 75% | 1023.9 hPa | 0 mm | - | - | - |
| 1777733117 | 17.78° C | 73% | 1024.1 hPa | 0 mm | - | - | - |
| 1777732814 | 16.67° C | 73% | 1023.9 hPa | 0 mm | - | - | - |
| 1777732510 | 16.67° C | 79% | 1023.9 hPa | 0 mm | - | - | - |
| 1777732209 | 16.67° C | 77% | 1023.8 hPa | 0 mm | - | - | - |
| 1777731905 | 16.67° C | 78% | 1023.8 hPa | 0 mm | - | - | - |
| 1777731601 | 16.67° C | 78% | 1023.9 hPa | 0 mm | - | - | - |
| 1777731299 | 15.56° C | 82% | 1023.8 hPa | 0 mm | - | - | - |
| 1777730996 | 15° C | 81% | 1023.6 hPa | 0 mm | - | - | - |
| 1777730695 | 15° C | 81% | 1023.7 hPa | 0 mm | - | - | - |
| 1777730391 | 14.44° C | 83% | 1023.7 hPa | 0 mm | - | - | - |
| 1777730087 | 14.44° C | 84% | 1023.5 hPa | 0 mm | - | - | - |
| 1777729784 | 14.44° C | 83% | 1023.6 hPa | 0 mm | - | - | - |
| 1777729481 | 14.44° C | 83% | 1023.4 hPa | 0 mm | - | - | - |
| 1777729177 | 13.89° C | 86% | 1023.6 hPa | 0 mm | - | - | - |
| 1777728874 | 13.33° C | 85% | 1023.6 hPa | 0 mm | - | - | - |
| 1777728571 | 13.89° C | 84% | 1023.5 hPa | 0 mm | - | - | - |
| 1777728268 | 13.89° C | 85% | 1023.4 hPa | 0 mm | - | - | - |
| 1777727965 | 13.33° C | 85% | 1023.4 hPa | 0 mm | - | - | - |
| 1777727662 | 13.89° C | 82% | 1023.3 hPa | 0 mm | - | - | - |
| 1777727359 | 12.22° C | 87% | 1023.2 hPa | 0 mm | - | - | - |
| 1777727056 | 12.22° C | 88% | 1023.3 hPa | 0 mm | - | - | - |
| 1777726754 | 12.22° C | 88% | 1023.2 hPa | 0 mm | - | - | - |
| 1777726451 | 11.67° C | 87% | 1023 hPa | 0 mm | - | - | - |
| 1777726147 | 12.22° C | 87% | 1023.1 hPa | 0 mm | - | - | - |
* Rain latest hour (hover to see other rain measurements)
** Current wind speed in m/s (hover to see current wind gust speed)